Alvadore, OR

12:30 PM PDT on September 25, 2016 (GMT -0700)
Mahlon Sweet

Weather History for KEUG - October, 2012

Change the Weather History Date:

Saturday, October 13, 2012

  Actual Average Record
Temperature  
Mean Temperature 61 °F 54 °F  
Max Temperature 67 °F 66 °F 79 °F (1936)
Min Temperature 54 °F 41 °F 29 °F (2002)
Degree Days  
Heating Degree Days 4 12  
Month to date heating degree days 109 126  
Since 1 July heating degree days 228 314  
Cooling Degree Days 0 0  
Month to date cooling degree days 0 0  
Year to date cooling degree days 230 238  
Growing Degree Days 10 (Base 50)    
Moisture  
Dew Point 56 °F    
Average Humidity 87    
Maximum Humidity 100    
Minimum Humidity 73    
Precipitation  
Precipitation T in 0.08 in 0.98 in (1935)
Month to date precipitation 0.51 0.88  
Year to date precipitation 31.37 28.18  
Snow  
Snow 0.00 in - - ()
Month to date snowfall 0.0  
Since 1 July snowfall 0.0  
Since 1 September snowfall 0.0  
Snow Depth 0.00 in    
Sea Level Pressure  
Sea Level Pressure 30.22 in    
Wind  
Wind Speed 8 mph (South)    
Max Wind Speed 17 mph    
Max Gust Speed 21 mph    
Visibility 9 miles    
Events Fog    
T = Trace of Precipitation, MM = Missing Value Source: NWS Daily Summary

Daily Weather History Graph

Daily Weather History Graph

Search for Another Location

Airport or City:

Trip Planner

Search our weather history database for the weather conditions in past years. The results will help you decide how hot, cold, wet, or windy it might be!

Date:

Astronomy

Oct. 13, 2012 Rise Set
Actual Time 7:25 AM PDT 6:31 PM PDT
Civil Twilight 6:56 AM PDT 7:00 PM PDT
Nautical Twilight 6:23 AM PDT 7:33 PM PDT
Astronomical Twilight 5:49 AM PDT 8:07 PM PDT
Moon 5:18 AM PDT (10/13) 5:20 PM PDT (10/13)
Length of Visible Light 12h 03m
Length of Day
11h 05m
Waning Crescent, 4% of the Moon is Illuminated
Oct 13
Waning Crescent
Oct 15
New
Oct 21
First Quarter
Oct 29
Full
Nov 6
Last Quarter

Hourly Weather History & Observations

Time (PDT) Temp. Dew Point Humidity Pressure Visibility Wind Dir Wind Speed Gust Speed Precip Events Conditions
12:54 AM 55.0 °F 54.0 °F 96% 30.15 in 4.0 mi SE 9.2 mph - 0.01 in   Overcast
1:54 AM 55.0 °F 54.0 °F 96% 30.17 in 8.0 mi SSE 8.1 mph - N/A   Overcast
2:54 AM 55.0 °F 54.0 °F 96% 30.18 in 10.0 mi SSE 9.2 mph - N/A   Overcast
3:20 AM 55.4 °F 53.6 °F 94% 30.18 in 10.0 mi SE 6.9 mph - N/A   Overcast
3:54 AM 55.0 °F 54.0 °F 96% 30.19 in 6.0 mi SSE 5.8 mph - N/A   Overcast
4:54 AM 55.0 °F 55.0 °F 100% 30.20 in 4.0 mi SSE 4.6 mph - N/A   Overcast
5:54 AM 55.9 °F 55.0 °F 97% 30.20 in 10.0 mi SSE 8.1 mph - 0.00 in   Light Drizzle
6:50 AM 55.4 °F 55.4 °F 100% 30.20 in 10.0 mi SE 6.9 mph - 0.00 in   Overcast
6:54 AM 55.9 °F 55.0 °F 97% 30.20 in 10.0 mi SE 6.9 mph - 0.00 in   Overcast
7:54 AM 55.9 °F 55.0 °F 97% 30.22 in 3.0 mi SE 5.8 mph - 0.00 in   Light Drizzle
8:20 AM 57.2 °F 55.4 °F 94% 30.23 in 8.0 mi SSE 5.8 mph - 0.00 in   Overcast
8:54 AM 57.9 °F 57.0 °F 97% 30.24 in 10.0 mi SSE 4.6 mph - 0.00 in   Overcast
9:36 AM 59.0 °F 57.2 °F 94% 30.25 in 7.0 mi SSE 4.6 mph - N/A   Overcast
9:54 AM 60.1 °F 57.9 °F 93% 30.25 in 7.0 mi South 8.1 mph - N/A   Overcast
10:49 AM 60.8 °F 57.2 °F 88% 30.26 in 10.0 mi South 10.4 mph - N/A   Overcast
10:54 AM 60.8 °F 57.2 °F 88% 30.26 in 10.0 mi South 12.7 mph - N/A   Overcast
11:54 AM 63.0 °F 59.0 °F 87% 30.25 in 10.0 mi SSW 11.5 mph - N/A   Overcast
12:54 PM 64.0 °F 57.9 °F 80% 30.27 in 10.0 mi SSW 11.5 mph - N/A   Mostly Cloudy
1:54 PM 66.9 °F 57.9 °F 73% 30.24 in 10.0 mi SSW 15.0 mph 19.6 mph N/A   Mostly Cloudy
2:20 PM 66.2 °F 57.2 °F 73% 30.24 in 10.0 mi SW 11.5 mph - N/A   Mostly Cloudy
2:54 PM 64.0 °F 61.0 °F 90% 30.25 in 8.0 mi WSW 6.9 mph - 0.00 in   Overcast
3:54 PM 64.9 °F 57.9 °F 78% 30.26 in 10.0 mi West 8.1 mph - N/A   Overcast
4:54 PM 64.4 °F 57.2 °F 77% 30.25 in 10.0 mi West 4.6 mph - N/A   Overcast
5:54 PM 64.0 °F 57.9 °F 80% 30.24 in 10.0 mi SSW 3.5 mph - N/A   Mostly Cloudy
6:54 PM 60.8 °F 57.2 °F 88% 30.21 in 10.0 mi Calm Calm - N/A   Mostly Cloudy
7:54 PM 57.0 °F 55.9 °F 96% 30.22 in 10.0 mi Calm Calm - N/A   Partly Cloudy
8:54 PM 55.4 °F 53.6 °F 94% 30.23 in 10.0 mi Calm Calm - N/A   Partly Cloudy
9:54 PM 54.0 °F 54.0 °F 100% 30.23 in 10.0 mi South 5.8 mph - N/A Fog Patches of Fog
10:13 PM 55.4 °F 53.6 °F 94% 30.22 in 10.0 mi South 5.8 mph - N/A Fog Patches of Fog
10:54 PM 57.9 °F 57.0 °F 97% 30.21 in 10.0 mi WSW 6.9 mph - N/A   Overcast
11:17 PM 57.2 °F 57.2 °F 100% 30.20 in 8.0 mi SW 5.8 mph - N/A   Overcast
11:54 PM 57.0 °F 57.0 °F 100% 30.19 in 5.0 mi SW 6.9 mph - N/A   Overcast